Location: Rockford
(42.2710°N, 89.0940°W)
Time: 05:52:08
(UTC-05:00)

Daily predictions for brighter satellites

Satellite Brightness Start Highest point End
(mag) Time Altitude Azimuth Time Altitude Azimuth Time Altitude Azimuth
ATLAS CENTAUR R/B 2.4 00:05:55 41° N 00:05:55 41° N 00:08:33 10° NNE
Meteor 1-20 Rocket 4.4 00:05:11 56° SW 00:06:12 67° WNW 00:11:54 10° N
Cosmos 2082 4.2 00:04:14 10° NNW 00:09:48 50° ENE 00:10:39 46° E
Cosmos 2278 4.2 00:12:16 46° E 00:12:16 46° E 00:17:05 10° NE
ISS -0.9 00:09:56 10° NW 00:12:15 18° N 00:14:35 10° NE
Meteor 1-13 Rocket 4.3 00:08:11 10° N 00:13:55 68° E 00:14:20 65° ESE
Meteor 1-19 Rocket 4.3 00:08:39 10° N 00:14:29 68° ENE 00:14:56 65° ESE
Okean 2 Rocket 4.0 00:22:31 43° WNW 00:22:31 43° WNW 00:26:28 10° N
Terra 4.2 00:24:15 12° W 00:24:57 12° W 00:26:49 10° WNW
CZ-2C R/B 3.1 00:25:43 70° W 00:25:43 70° W 00:30:31 10° NNW
Mayak 0.2 00:24:11 10° NNE 00:26:48 32° NE 00:26:48 32° NE
Cosmos 1536 4.3 00:30:56 33° NE 00:30:56 33° NE 00:33:25 10° NNE
Cosmos 1624 Rocket 4.5 00:32:23 50° ENE 00:32:23 50° ENE 00:36:53 10° NNE
Cosmos 2227 Rocket 2.0 00:30:25 10° NNW 00:36:06 86° WSW 00:36:06 86° WSW
Meteor 1-11 Rocket 3.7 00:36:32 80° SSE 00:36:51 85° E 00:42:51 10° N
Gbstr 26 Del rocket 4.2 00:33:12 10° NW 00:35:53 35° NNW 00:35:53 35° NNW
Cosmos 2266 Rocket 3.8 00:37:32 74° SSW 00:38:09 86° W 00:44:20 10° N
USA 229 DEB 4.0 00:38:23 48° ESE 00:38:23 48° ESE 00:44:50 10° NE
USA 229 4.0 00:38:31 48° ESE 00:38:31 48° ESE 00:44:55 10° NE
Cosmos 407 Rocket 4.1 00:33:25 10° N 00:38:35 47° ENE 00:38:54 47° ENE
Cosmos 2219 4.5 00:33:59 10° NW 00:38:45 29° W 00:38:45 29° W
Okean 1 Rocket 4.1 00:41:29 39° NE 00:41:29 39° NE 00:44:30 10° NNE
Cosmos 2315 Rocket 3.9 00:35:29 10° N 00:41:40 68° E 00:42:16 64° ESE
CZ-2C R/B 2.8 00:36:45 10° N 00:41:51 60° WNW 00:42:04 59° W
Meteor 1-23 Rocket 4.3 00:38:02 10° N 00:43:41 62° ENE 00:43:52 61° E
Cosmos 1656 3.6 00:53:47 75° ENE 00:53:47 75° ENE 00:58:58 10° NNE
Cosmos 2369 3.6 00:55:17 75° W 00:55:31 77° WNW 01:01:16 10° NNE
Meteor 2-4 Rocket 3.6 00:50:12 10° NNW 00:55:18 75° WNW 00:55:18 75° WNW
Meteor 1-5 Rocket 4.1 00:59:38 78° E 00:59:38 78° E 01:05:10 10° NNE
CZ-4C R/B 3.7 00:54:36 10° NNW 01:01:22 47° NE 01:06:47 19° ESE
Cosmos 2056 Rocket 3.5 01:02:35 74° N 01:02:35 74° N 01:07:14 10° NNE
CZ-4B R/B 3.6 01:04:25 26° NNE 01:04:25 26° NNE 01:06:19 10° N
Cosmos 1980 Rocket 3.1 01:03:42 37° E 01:03:42 37° E 01:08:17 10° NE
ALOS 2 4.1 01:05:43 30° WNW 01:05:43 30° WNW 01:08:35 10° NNW
Cosmos 1238 Rocket 4.1 01:03:59 10° N 01:08:59 50° E 01:09:20 49° E
Cosmos 1025 Rocket 3.8 01:10:43 10° N 01:13:59 50° N 01:13:59 50° N
Cosmos 1244 Rocket 4.3 01:19:44 75° SSW 01:20:19 87° W 01:26:36 10° N
Cosmos 1975 4.4 01:23:32 31° NE 01:23:32 31° NE 01:26:09 10° NNE
Cosmos 1452 Rocket 3.7 01:28:49 64° E 01:28:49 64° E 01:33:40 10° NNE
NOSS 3-1 (C) 3.8 01:29:04 46° ESE 01:29:04 46° ESE 01:34:49 10° NE
H-2A R/B 3.8 01:25:59 10° NNE 01:28:35 32° NE 01:28:35 32° NE
Cosmos 2297 Rocket 3.1 01:25:39 10° NW 01:30:03 36° W 01:30:03 36° W
Cosmos 1697 Rocket 2.6 01:30:56 74° W 01:31:06 75° WNW 01:36:46 10° NNE
Nadezhda 1 Rocket 4.1 01:34:22 10° N 01:40:27 65° E 01:41:30 56° SE
Cosmos 1892 Rocket 4.1 01:36:07 10° N 01:39:53 59° NNE 01:39:53 59° NNE
Cosmos 921 Rocket 4.0 01:41:32 41° NW 01:41:32 41° NW 01:44:52 10° N
SL-16 R/B 3.4 01:44:16 29° ESE 01:44:29 29° ESE 01:49:17 10° NE
BREEZE M DEB (TANK) 3.7 01:48:28 68° SE 01:48:28 68° SE 01:51:45 10° ENE
ISS -0.9 01:47:20 10° NW 01:49:39 18° N 01:51:57 10° NE
Cosmos 614 Rocket 3.9 01:47:46 10° NNW 01:52:46 80° NE 01:52:46 80° NE
Cosmos 2322 Rocket 3.1 01:53:12 34° ESE 01:53:32 35° ESE 01:58:39 10° NE
Meteor 1-12 Rocket 4.1 01:56:32 73° SSE 01:57:04 81° E 02:02:51 10° NNE
Cosmos 2360 4.0 01:56:58 80° SSW 01:57:19 89° ESE 02:03:03 10° NNE
Cosmos 1420 Rocket 3.9 01:58:32 83° E 01:58:32 83° E 02:03:41 10° NNE
SL-16 R/B 4.3 01:55:59 10° ESE 02:01:02 27° ENE 02:06:07 10° N
Cosmos 1626 Rocket 4.4 01:57:29 10° N 02:01:40 42° ENE 02:01:42 42° ENE
Cosmos 1386 Rocket 4.3 02:01:17 68° SSE 02:02:05 82° E 02:08:09 10° N
Mayak 1.0 02:00:53 10° NNW 02:03:28 16° WNW 02:03:28 16° WNW
Cosmos 1666 3.9 02:07:17 38° ENE 02:07:17 38° ENE 02:10:09 10° NNE
USA 234 3.2 02:00:42 10° NE 02:07:14 68° SE 02:08:24 57° S
Cosmos 839 Rocket 3.9 02:08:23 60° SW 02:09:34 80° WNW 02:15:47 10° NNE
Cosmos 2227 4.0 02:06:00 10° NNW 02:11:38 81° WSW 02:12:03 75° SSW
Cosmos 1544 Rocket 4.0 02:13:08 55° NW 02:13:08 55° NW 02:16:57 10° N
Resurs 1-4 Rocket 3.9 02:14:32 10° NE 02:18:32 22° E 02:20:24 18° ESE
Cosmos 1745 Rocket 4.1 02:17:35 52° WSW 02:18:33 58° W 02:24:38 10° N
Cosmos 2227 Rocket 4.5 02:17:35 10° WNW 02:17:54 10° W 02:17:54 10° W
Cosmos 2181 Rocket 4.5 02:13:06 10° N 02:19:24 57° E 02:22:06 34° SE
Cosmos 1461 3.2 02:15:11 10° NNW 02:19:15 72° NNE 02:19:15 72° NNE
Cosmos 1066 Rocket 4.2 02:15:01 10° NNW 02:20:20 59° W 02:20:23 59° W
Cosmos 1741 Rocket 3.8 02:16:50 10° NNW 02:22:05 86° WSW 02:22:27 78° S
ARIANE 5 R/B 4.4 02:20:49 10° NE 02:24:38 21° E 02:26:38 17° ESE
BREEZE-M DEB (TANK) 3.7 02:16:43 10° WSW 02:26:02 51° NNW 02:29:10 10° NE
Cosmos 1140 Rocket 4.2 02:21:32 10° NNW 02:25:41 40° W 02:25:41 40° W
Cosmos 1455 Rocket 3.7 02:29:38 44° WNW 02:29:38 44° WNW 02:33:24 10° N
ADEOS Rocket 3.3 02:23:42 10° NNE 02:29:52 54° E 02:31:34 41° SSE
ATLAS 2AS CENTAUR R/B 4.5 02:26:53 18° SE 02:30:17 24° ESE 02:36:23 10° ENE
SWAS 4.5 02:29:30 10° NNW 02:33:41 76° NE 02:33:41 76° NE
NOSS 3-1 (A) 3.3 02:33:28 57° SW 02:34:46 85° NW 02:41:19 10° NE
NPP 3.8 02:29:47 10° NNE 02:35:09 63° ESE 02:36:18 50° SSE
Cosmos 1842 3.7 02:31:49 10° N 02:35:25 59° ENE 02:35:25 59° ENE
SL-08 R/B 3.5 02:37:31 52° SE 02:38:26 66° ENE 02:43:01 10° N
CZ-2D R/B 3.4 02:33:41 10° NNE 02:38:37 33° E 02:40:47 25° SE
Cosmos 2263 Rocket 2.5 02:33:25 10° NNW 02:39:05 63° ENE 02:42:29 24° SE
COBE Rocket 4.2 02:34:22 10° NNE 02:39:32 66° E 02:40:35 53° SSE
Cosmos 1743 3.7 02:43:11 38° NW 02:43:11 38° NW 02:46:11 10° N
IRS-P3 4.1 02:38:48 10° NNE 02:44:12 80° ESE 02:45:21 56° S
Cosmos 2360 Rocket 3.2 02:44:09 30° SE 02:45:55 37° ESE 02:51:03 10° NE
Cosmos 1980 Rocket 3.3 02:45:28 27° W 02:47:08 33° NW 02:52:11 10° N
Cosmos 44 4.4 02:43:53 10° NNW 02:47:59 38° NE 02:52:09 10° ESE
CBERS-1 4.0 02:43:15 10° NNE 02:48:25 76° ESE 02:49:31 55° S
CZ-4C R/B 3.2 02:43:10 10° NW 02:50:06 47° WSW 02:51:52 41° SSW
PSLV R/B 4.3 02:51:14 54° WNW 02:51:14 54° WNW 02:54:58 10° NNW
AQUA 3.7 02:52:57 10° NNE 02:57:44 83° ESE 02:58:41 58° S
Cosmos 1437 Rocket 3.3 03:02:41 47° WNW 03:02:41 47° WNW 03:06:38 10° N
Cosmos 1602 Rocket 4.1 02:58:29 10° NNW 03:02:28 42° W 03:02:28 42° W
Centaur D AC-29 3.8 03:03:54 11° SE 03:03:54 11° SE 03:04:54 10° SE
H-2A R/B 4.5 03:02:34 10° NNW 03:05:01 16° WNW 03:05:11 16° WNW
BREEZE M DEB (TANK) 3.5 03:07:50 22° NNW 03:08:06 23° N 03:10:36 10° NE
Cosmos 2322 4.3 03:06:52 31° SSE 03:09:11 48° ESE 03:14:36 10° NE
Meteor 1-15 Rocket 4.2 03:12:03 39° S 03:14:16 85° E 03:19:59 10° N
SL-8 R/B 4.1 03:14:20 43° S 03:15:02 47° SE 03:19:41 10° ENE
NOSS 2-3 (C) 4.4 03:14:04 37° SSE 03:15:29 49° ESE 03:20:39 10° NE
Iridium 4 Rocket 4.0 03:18:26 24° SSE 03:22:04 67° E 03:27:40 10° N
Cosmos 1726 Rocket 3.7 03:21:10 40° SSE 03:22:40 70° E 03:27:04 10° NNE
Cosmos 1707 3.7 03:19:01 10° N 03:22:44 43° ENE 03:25:01 20° SE
Helios 1A Rocket 4.2 03:19:40 10° NNW 03:23:03 26° WNW 03:23:25 25° WNW
UNK 3.6 03:22:03 39° S 03:23:47 79° WSW 03:28:27 10° NNW
ISS -2.9 03:23:29 10° NW 03:26:41 50° NNE 03:29:52 10° ESE
ADEOS 3.7 03:22:24 10° NNE 03:27:38 70° ESE 03:30:19 29° S
SL-16 R/B 2.9 03:26:08 29° WSW 03:28:22 42° WNW 03:33:45 10° NNE
Cosmos 44 Rocket 3.1 03:24:47 10° NW 03:29:32 80° WSW 03:34:04 11° SSE
Meteor 1-4 Rocket 2.3 03:30:12 66° SW 03:30:33 73° W 03:34:07 10° N
Cosmos 1302 Rocket 4.0 03:30:38 35° SSW 03:32:58 86° ESE 03:38:17 10° NNE
Cosmos 1378 4.1 03:29:28 10° N 03:33:03 45° ENE 03:35:39 17° SSE
H-2A R/B 4.2 03:00:03 10° W 03:35:17 46° SSW 03:41:23 10° SE
IRS-1D 3.4 03:30:54 10° N 03:35:51 79° WNW 03:38:04 34° SSW
Cosmos 1606 Rocket 3.6 03:35:27 41° SSW 03:36:50 67° W 03:41:17 10° N
Spot 4 Rocket 4.0 03:31:46 10° N 03:36:56 74° WNW 03:39:19 33° SSW
Cosmos 2322 Rocket 3.1 03:35:01 25° WSW 03:37:31 36° WNW 03:42:47 10° N
CZ-2D R/B 4.2 03:37:42 10° NNE 03:41:56 49° E 03:44:34 20° SSE
SL-16 R/B 2.7 03:40:35 24° SSW 03:44:16 55° W 03:50:25 10° NNW
USA 234 4.1 03:43:54 10° NE 03:50:02 44° NNW 03:55:43 12° W
NOSS 2-3 (D) 3.9 03:51:31 30° SW 03:53:55 84° NW 03:59:27 10° NE
Cosmos 1340 Rocket 3.5 03:52:23 10° N 03:56:18 52° ENE 04:00:09 10° SSE
ADEOS II 3.7 03:53:31 10° NE 03:58:07 30° E 04:02:41 10° SSE
Resurs 1-4 Rocket 2.5 03:53:33 10° N 03:58:37 48° WNW 04:01:27 24° SW
Cosmos 1825 Rocket 4.5 03:55:35 10° NNW 03:59:27 30° W 04:00:35 26° WSW
Cosmos 1758 Rocket 4.1 03:56:41 10° NNW 04:00:45 39° W 04:02:25 28° SW
Cosmos 2184 Rocket 4.4 04:00:07 23° SW 04:03:38 45° WNW 04:09:33 10° N
ARIANE 5 R/B 2.9 03:59:03 10° N 04:03:59 49° WNW 04:06:58 23° SW
BREEZE-M DEB (TANK) 2.4 04:05:01 32° SSW 04:06:07 52° SSE 04:10:39 10° ENE
BREEZE-M DEB (TANK) 4.5 04:04:40 10° NW 04:08:35 54° NNE 04:22:21 10° ESE
Cosmos 2237 4.2 04:05:01 22° SSW 04:08:47 76° WNW 04:14:31 10° NNE
Cosmos 1992 Rocket 4.3 04:07:17 14° S 04:11:40 63° ESE 04:16:49 10° NNE
Lacrosse 5 rocket 3.5 04:10:04 10° NNW 04:13:33 28° NNE 04:17:13 10° E
Cosmos 1271 Rocket 2.7 04:11:22 22° SSW 04:13:55 72° W 04:17:56 10° N
ADEOS Rocket 4.4 04:09:58 10° N 04:14:54 24° WNW 04:18:31 14° WSW
UNKNOWN OBJECT B 2.9 04:11:27 10° N 04:15:12 57° WNW 04:17:32 22° SSW
Cosmos 1184 Rocket 2.9 04:12:21 10° NNW 04:15:37 54° W 04:17:41 20° SSW
Cosmos 2228 3.4 04:13:48 23° SW 04:16:09 46° WNW 04:20:18 10° N
CZ-2D R/B 3.1 04:13:43 10° N 04:18:38 34° WNW 04:22:07 17° WSW
ATLAS 2AS CENTAUR R/B 3.1 04:14:19 18° SW 04:20:27 80° NW 04:28:40 10° NE
Intercosmos 24 4.0 04:18:33 16° S 04:21:32 82° W 04:26:31 10° N
Cosmos 2263 Rocket 3.6 04:18:37 10° WNW 04:22:26 19° W 04:24:05 17° WSW
Cosmos 389 Rocket 2.4 04:21:18 16° S 04:24:02 89° W 04:27:39 10° N
CZ-4B R/B 4.2 04:23:46 10° NNE 04:27:22 37° E 04:31:07 10° SSE
Cosmos 1953 4.0 04:24:32 10° SSE 04:28:09 33° E 04:31:47 10° NNE
Cosmos 44 4.1 04:25:27 10° WNW 04:28:58 24° WSW 04:32:22 11° SSW
In-Cosmos 22 4.1 04:24:14 10° N 04:29:38 84° E 04:34:55 10° S
Cosmos 2360 Rocket 3.2 04:25:56 15° WSW 04:29:55 34° WNW 04:35:01 10° N
Lacrosse 5 4.3 04:27:45 10° SE 04:29:58 13° ESE 04:32:11 10° E
COSMOS 2428 2.8 04:27:37 15° SW 04:32:22 68° WNW 04:38:07 10° NNE
Nadezhda 3 Rocket 4.3 04:27:15 10° NNW 04:33:14 50° W 04:39:16 10° SSW
Cosmos 2219 Rocket 2.4 04:28:26 11° SSW 04:33:59 77° ESE 04:39:41 10° NNE
DELTA 2 R/B (1) 3.7 04:30:01 14° WSW 04:34:45 62° S 04:40:14 10° E
OAO 3 Rocket 4.0 04:32:29 16° WSW 04:35:50 35° S 04:40:18 10° ESE
Cosmos 2058 Rocket 4.3 04:33:27 16° WSW 04:36:10 27° WNW 04:40:02 10° NNW
Cosmos 2237 Rocket 3.2 04:31:44 10° S 04:37:02 44° ESE 04:42:21 10° NE
Aureole 2 Rocket 2.8 04:33:21 12° SSW 04:37:10 89° WNW 04:41:15 10° NNE
SL-8 Rocket 4.1 04:34:13 10° S 04:40:32 87° E 04:46:54 10° N
ATLAS CENTAUR R/B 3.7 04:35:38 10° NW 04:41:24 35° NNE 04:44:03 10° E
PSLV R/B 4.1 04:37:36 10° NNE 04:41:30 68° ESE 04:45:28 10° S
Cosmos 972 4.4 04:37:36 10° SSW 04:42:34 87° WNW 04:47:29 10° NNE
CZ-4B R/B 4.3 04:37:30 10° NNE 04:42:59 47° E 04:48:21 10° S
Cosmos 972 Rocket 4.4 04:39:29 14° SW 04:43:28 43° WNW 04:48:14 10° N
Cosmos 1844 Rocket 2.7 04:38:01 10° NNW 04:43:36 59° WSW 04:49:09 10° S
Cosmos 1812 Rocket 3.6 04:44:06 10° SSW 04:48:26 63° W 04:52:46 10° N
Okean O Rocket 2.1 04:46:22 10° NNE 04:50:49 64° E 04:55:13 10° S
Cosmos 1544 3.3 04:47:33 10° SSW 04:51:11 56° W 04:54:52 10° N
Cosmos 2333 Rocket 2.3 04:45:41 10° SSW 04:51:23 85° ESE 04:57:07 10° NNE
SeaSat 1 2.4 04:48:06 10° SSE 04:53:02 81° WSW 04:58:00 10° NNW
ATLAS 3B R/B 2.6 04:46:45 10° NW 04:53:26 68° WSW 04:59:50 10° SSE
Okean 3 Rocket 4.0 04:50:06 10° N 04:54:32 68° E 04:58:58 10° SSE
SL-8 R/B 4.2 04:52:50 10° W 04:57:35 56° NNW 05:02:22 10° ENE
Meteor 1-24 Rocket 4.1 04:54:33 10° NNW 04:59:33 40° W 05:04:41 10° SSW
BREEZE-M DEB (TANK) 3.5 04:51:29 10° WSW 05:01:32 66° NNW 05:04:09 10° ENE
Cosmos 1766 4.2 04:58:21 10° SW 05:01:49 30° WNW 05:05:21 10° NNW
ISS -2.5 05:00:26 10° W 05:02:56 20° SW 05:05:26 10° S
Cosmos 1727 Rocket 4.1 04:59:32 10° N 05:05:47 83° E 05:11:58 10° S
USA 161 2.9 05:03:46 10° SSW 05:06:10 21° W 05:08:32 10° NW
CZ-4B DEB 4.4 05:01:01 10° NNE 05:06:37 79° ESE 05:12:10 10° S
Cosmos 2278 Rocket 2.3 05:02:13 10° NNW 05:07:55 87° ENE 05:13:35 10° SSE
NOSS 0 Rocket 4.0 05:02:51 10° SSW 05:09:02 87° WNW 05:15:18 10° NNE
OPS 6432 4.4 05:06:08 10° SW 05:09:40 66° NW 05:12:43 10° NNE
